DF2AP-13 Weather Reports


time (UTC)temp
F
wind
direction
speed
knots
gust
knots
rain 1hr
in
rain 24hr
in
rain mn
in
humidity
%
barometer
mb
20260506165305 59 0.0 0.0 0.00 0.00 0.00 87 1006.3
20260506164303 59 0.0 0.0 0.00 0.00 0.00 89 1006.1
20260506163307 60 0.0 0.0 0.00 0.00 0.00 86 1006.2
20260506162307 60 0.0 0.0 0.00 0.00 0.00 77 1005.9
20260506161304 63 0.0 0.0 0.00 0.00 0.00 71 1005.7
20260506160302 66 0.0 0.0 0.00 0.00 0.00 57 1005.3
20260506155305 67 0.0 0.0 0.00 0.00 0.00 56 1005.1
20260506154302 67 0.0 0.0 0.00 0.00 0.00 52 1005.1
20260506153302 68 0.0 0.0 0.00 0.00 0.00 52 1005.0
20260506152305 69 0.0 0.0 0.00 0.00 0.00 50 1005.0
20260506151307 69 0.0 0.0 0.00 0.00 0.00 53 1005.1
20260506150304 67 0.0 0.0 0.00 0.00 0.00 54 1005.4
20260506145305 67 0.0 0.0 0.00 0.00 0.00 57 1005.4
20260506144302 67 0.0 0.0 0.00 0.00 0.00 56 1005.5
20260506143302 68 0.0 0.0 0.00 0.00 0.00 55 1005.3
20260506142305 68 0.0 0.0 0.00 0.00 0.00 51 1005.3
20260506141306 68 0.0 0.0 0.00 0.00 0.00 54 1005.4
20260506140304 68 0.0 0.0 0.00 0.00 0.00 53 1005.5
20260506135305 68 0.0 0.0 0.00 0.00 0.00 53 1005.3
20260506134302 68 0.0 0.0 0.00 0.00 0.00 55 1005.5
20260506133302 67 0.0 0.0 0.00 0.00 0.00 57 1005.6
20260506132305 68 0.0 0.0 0.00 0.00 0.00 55 1005.6
20260506131302 66 0.0 0.0 0.00 0.00 0.00 59 1005.7
20260506130302 67 0.0 0.0 0.00 0.00 0.00 58 1005.8
20260506125305 68 0.0 0.0 0.00 0.00 0.00 56 1005.6
20260506124307 68 0.0 0.0 0.00 0.00 0.00 53 1005.7
20260506123302 68 0.0 0.0 0.00 0.00 0.00 54 1005.6
20260506122305 68 0.0 0.0 0.00 0.00 0.00 53 1005.8
20260506121302 67 0.0 0.0 0.00 0.00 0.00 54 1005.8
20260506120303 66 0.0 0.0 0.00 0.00 0.00 58 1005.8
20260506115306 65 0.0 0.0 0.00 0.00 0.00 61 1006.0
20260506114303 65 0.0 0.0 0.00 0.00 0.00 57 1005.9
20260506113302 66 0.0 0.0 0.00 0.00 0.00 58 1005.9
20260506112305 66 0.0 0.0 0.00 0.00 0.00 60 1005.9
20260506111302 65 0.0 0.0 0.00 0.00 0.00 60 1006.0
20260506110302 65 0.0 0.0 0.00 0.00 0.00 59 1006.0
20260506105307 66 0.0 0.0 0.00 0.00 0.00 61 1006.2
20260506104312 65 0.0 0.0 0.00 0.00 0.00 59 1006.2
20260506103302 63 0.0 0.0 0.00 0.00 0.00 67 1006.5
20260506102305 63 0.0 0.0 0.00 0.00 0.00 67 1006.7
20260506101302 63 0.0 0.0 0.00 0.00 0.00 68 1006.6
20260506100302 64 0.0 0.0 0.00 0.00 0.00 65 1006.5
20260506095313 63 0.0 0.0 0.00 0.00 0.00 66 1006.4
20260506094302 62 0.0 0.0 0.00 0.00 0.00 68 1006.4
20260506093302 62 0.0 0.0 0.00 0.00 0.00 68 1006.3
20260506092305 63 0.0 0.0 0.00 0.00 0.00 71 1006.3
20260506091302 63 0.0 0.0 0.00 0.00 0.00 70 1006.2
20260506090302 62 0.0 0.0 0.00 0.00 0.00 71 1006.2
20260506085305 61 0.0 0.0 0.00 0.00 0.00 76 1006.1
20260506084302 61 0.0 0.0 0.00 0.00 0.00 75 1006.1
20260506083312 62 0.0 0.0 0.00 0.00 0.00 74 1006.0
20260506082304 61 0.0 0.0 0.00 0.00 0.00 78 1006.0
20260506081302 60 0.0 0.0 0.00 0.00 0.00 79 1006.1
20260506080302 60 0.0 0.0 0.00 0.00 0.00 77 1006.1
20260506073302 59 0.0 0.0 0.00 0.00 0.00 82 1006.2
20260506072305 59 0.0 0.0 0.00 0.00 0.00 92 1006.3
20260506071302 58 0.0 0.0 0.00 0.00 0.00 98 1006.2
20260506070302 58 0.0 0.0 0.00 0.00 0.00 10 1006.3
20260506062305 57 0.0 0.0 0.00 0.00 0.00 10 1006.3
20260506061302 57 0.0 0.0 0.00 0.00 0.00 10 1006.2
20260506060302 56 0.0 0.0 0.00 0.00 0.00 10 1006.5
20260506051302 54 0.0 0.0 0.00 0.00 0.00 10 1006.7
20260506050302 54 0.0 0.0 0.00 0.00 0.00 10 1006.7
20260506044302 54 0.0 0.0 0.00 0.00 0.00 10 1006.6
20260506043302 54 0.0 0.0 0.00 0.00 0.00 10 1006.4
20260506042305 54 0.0 0.0 0.00 0.00 0.00 10 1006.4
20260506041302 54 0.0 0.0 0.00 0.00 0.00 10 1006.5
20260506040302 54 0.0 0.0 0.00 0.00 0.00 10 1006.4
20260506035305 54 0.0 0.0 0.00 0.00 0.00 10 1006.4
20260506034302 54 0.0 0.0 0.00 0.00 0.00 10 1006.4
20260506033302 54 0.0 0.0 0.00 0.00 0.00 10 1006.5
20260506032305 54 0.0 0.0 0.00 0.00 0.00 10 1006.6
20260506031302 54 0.0 0.0 0.00 0.00 0.00 10 1006.7
20260506030302 54 0.0 0.0 0.00 0.00 0.00 10 1006.7
20260506025305 54 0.0 0.0 0.00 0.00 0.00 10 1006.8
20260506024302 54 0.0 0.0 0.00 0.00 0.00 10 1006.9
20260506023302 54 0.0 0.0 0.00 0.00 0.00 10 1006.9
20260506022305 54 0.0 0.0 0.00 0.00 0.00 10 1007.0
20260506021302 54 0.0 0.0 0.00 0.00 0.00 10 1007.0
20260506020302 54 0.0 0.0 0.00 0.00 0.00 10 1007.0
20260506015305 54 0.0 0.0 0.00 0.00 0.00 10 1007.1
20260506014302 54 0.0 0.0 0.00 0.00 0.00 10 1007.2
20260506013307 54 0.0 0.0 0.00 0.00 0.00 10 1007.2
20260506012307 54 0.0 0.0 0.00 0.00 0.00 10 1007.3
20260506011302 54 0.0 0.0 0.00 0.00 0.00 10 1007.2
20260506010307 54 0.0 0.0 0.00 0.00 0.00 10 1007.2
20260506005305 54 0.0 0.0 0.00 0.00 0.00 10 1007.3
20260506004302 54 0.0 0.0 0.00 0.00 0.00 10 1007.1
20260506003302 55 0.0 0.0 0.00 0.00 0.00 10 1007.1
20260506002305 54 0.0 0.0 0.00 0.00 0.00 10 1007.2
20260506001302 54 0.0 0.0 0.00 0.00 0.00 10 1007.4
20260506000302 54 0.0 0.0 0.00 0.00 0.00 10 1007.4
20260505235304 55 0.0 0.0 0.00 0.00 0.00 10 1007.5
20260505234302 54 0.0 0.0 0.00 0.00 0.00 10 1007.5
20260505233302 55 0.0 0.0 0.00 0.00 0.00 10 1007.7
20260505232305 55 0.0 0.0 0.00 0.00 0.00 10 1007.6
20260505231302 54 0.0 0.0 0.00 0.00 0.00 10 1007.6
20260505230302 54 0.0 0.0 0.00 0.00 0.00 10 1007.6
20260505225307 55 0.0 0.0 0.00 0.00 0.00 10 1007.8
20260505224302 55 0.0 0.0 0.00 0.00 0.00 10 1007.8
20260505223302 55 0.0 0.0 0.00 0.00 0.00 10 1007.8
20260505222305 55 0.0 0.0 0.00 0.00 0.00 10 1007.9
20260505221302 55 0.0 0.0 0.00 0.00 0.00 10 1008.1
20260505220302 56 0.0 0.0 0.00 0.00 0.00 10 1008.1
20260505215305 56 0.0 0.0 0.00 0.00 0.00 10 1008.0
20260505214302 57 0.0 0.0 0.00 0.00 0.00 10 1007.9
20260505213302 58 0.0 0.0 0.00 0.00 0.00 10 1007.8
20260505212305 58 0.0 0.0 0.00 0.00 0.00 10 1007.8
20260505211302 58 0.0 0.0 0.00 0.00 0.00 10 1007.9
20260505210302 58 0.0 0.0 0.00 0.00 0.00 10 1007.9
20260505205305 58 0.0 0.0 0.00 0.00 0.00 10 1007.9
20260505204302 58 0.0 0.0 0.00 0.00 0.00 10 1008.0
20260505203302 58 0.0 0.0 0.00 0.00 0.00 10 1007.9
20260505202305 58 0.0 0.0 0.00 0.00 0.00 10 1007.8
20260505201302 59 0.0 0.0 0.00 0.00 0.00 10 1007.8
20260505200302 59 0.0 0.0 0.00 0.00 0.00 10 1007.7
20260505195305 59 0.0 0.0 0.00 0.00 0.00 10 1007.8
20260505194304 59 0.0 0.0 0.00 0.00 0.00 10 1007.8
20260505193302 59 0.0 0.0 0.00 0.00 0.00 10 1007.8
20260505192305 59 0.0 0.0 0.00 0.00 0.00 98 1007.9
20260505191302 60 0.0 0.0 0.00 0.00 0.00 97 1007.9
20260505190302 60 0.0 0.0 0.00 0.00 0.00 95 1007.8
20260505185304 60 0.0 0.0 0.00 0.00 0.00 94 1007.6
20260505184302 61 0.0 0.0 0.00 0.00 0.00 92 1007.6
20260505183302 61 0.0 0.0 0.00 0.00 0.00 90 1007.5
20260505182305 61 0.0 0.0 0.00 0.00 0.00 90 1007.4
20260505181302 62 0.0 0.0 0.00 0.00 0.00 88 1007.3
20260505180302 62 0.0 0.0 0.00 0.00 0.00 86 1007.4